Location: Montreal
(45.5087°N, 73.5540°W)
Time: 23:19:05
(UTC-05:00)

AAUSAT CUBESAT 2 - Visible Passes

Search period start: 22 February 2019 00:00
Search period end: 04 March 2019 00:00
Orbit: 576 x 591 km, 97.5° (Epoch: 22 February)

Date Brightness Start Highest point End Pass type
(mag) Time Alt. Az. Time Alt. Az. Time Alt. Az.
22 Feb ? 05:54:34 10° ENE 05:56:45 14° E 05:58:54 10° ESE visible
22 Feb ? 18:19:41 10° S 18:23:51 68° WSW 18:28:02 10° NNW visible
23 Feb ? 06:00:15 10° NE 06:02:51 16° E 06:05:25 10° SE visible
23 Feb ? 18:25:47 10° S 18:29:53 58° W 18:34:02 10° NNW visible
24 Feb ? 06:06:00 10° NE 06:08:56 18° E 06:11:50 10° SE visible
24 Feb ? 18:31:53 10° S 18:35:56 49° W 18:40:02 10° NNW visible
25 Feb ? 06:11:49 10° NE 06:15:01 21° E 06:18:11 10° SE visible
25 Feb ? 18:38:02 10° S 18:42:00 42° W 18:45:59 10° NNW visible
26 Feb ? 18:44:12 10° SSW 18:48:03 36° W 18:51:56 10° NNW visible
27 Feb ? 18:50:24 10° SSW 18:54:07 31° W 18:57:52 10° NNW visible
28 Feb ? 18:56:38 10° SSW 19:00:11 27° W 19:03:47 10° NW visible
01 Mar ? 19:02:54 10° SSW 19:06:16 23° W 19:09:40 10° NW visible
02 Mar ? 19:09:13 10° SW 19:12:21 20° W 19:15:29 10° NW visible
03 Mar ? 19:15:36 10° SW 19:18:26 18° W 19:21:17 10° NW visible
